Time,TemperatureF,DewpointF,PressureIn,WindDirection,WindDirectionDegrees,WindSpeedMPH,WindSpeedGustMPH,Humidity,HourlyPrecipIn,Conditions,Clouds,dailyrainin,SoftwareType,DateUTC
2013-01-19 00:02:00,45.5,39.7,30.32,SE,136,0.0,0.0,80,0.00,,,0.00,LWC V2.11 B50,2013-01-19 06:02:00,
2013-01-19 00:07:00,45.4,39.9,30.33,SE,136,0.0,0.0,81,0.00,,,0.00,LWC V2.11 B50,2013-01-19 06:07:00,
2013-01-19 00:12:00,45.1,39.6,30.33,SE,136,0.0,0.0,81,0.00,,,0.00,LWC V2.11 B50,2013-01-19 06:12:00,
2013-01-19 00:17:00,44.8,39.3,30.33,SE,136,0.0,0.0,81,0.00,,,0.00,LWC V2.11 B50,2013-01-19 06:17:00,
2013-01-19 00:22:00,44.5,39.4,30.33,SE,136,0.0,0.0,82,0.00,,,0.00,LWC V2.11 B50,2013-01-19 06:22:00,
2013-01-19 00:27:00,44.2,39.1,30.32,SE,136,0.0,0.0,82,0.00,,,0.00,LWC V2.11 B50,2013-01-19 06:27:00,
2013-01-19 00:32:00,44.0,39.2,30.33,SE,136,0.0,0.0,83,0.00,,,0.00,LWC V2.11 B50,2013-01-19 06:32:00,
2013-01-19 00:37:00,43.8,39.0,30.33,SE,136,0.0,0.0,83,0.00,,,0.00,LWC V2.11 B50,2013-01-19 06:37:00,
2013-01-19 00:42:00,43.4,38.6,30.32,SE,136,0.0,1.0,83,0.00,,,0.00,LWC V2.11 B50,2013-01-19 06:42:00,
2013-01-19 00:47:00,43.3,38.5,30.32,SE,136,0.0,0.0,83,0.00,,,0.00,LWC V2.11 B50,2013-01-19 06:47:00,
2013-01-19 00:52:00,43.1,38.3,30.33,SE,136,0.0,0.0,83,0.00,,,0.00,LWC V2.11 B50,2013-01-19 06:52:00,
2013-01-19 00:57:00,42.8,38.0,30.32,SE,136,0.0,0.0,83,0.00,,,0.00,LWC V2.11 B50,2013-01-19 06:57:00,
2013-01-19 01:02:00,42.5,37.7,30.32,SE,136,0.0,0.0,83,0.00,,,0.00,LWC V2.11 B50,2013-01-19 07:02:00,
2013-01-19 01:07:00,42.3,37.8,30.32,SE,136,0.0,0.0,84,0.00,,,0.00,LWC V2.11 B50,2013-01-19 07:07:00,
2013-01-19 01:12:00,42.0,37.5,30.32,SE,136,0.0,0.0,84,0.00,,,0.00,LWC V2.11 B50,2013-01-19 07:12:00,
2013-01-19 01:17:00,41.9,38.0,30.32,SE,136,0.0,0.0,86,0.00,,,0.00,LWC V2.11 B50,2013-01-19 07:17:00,
2013-01-19 01:22:00,41.9,38.0,30.32,SE,136,0.0,0.0,86,0.00,,,0.00,LWC V2.11 B50,2013-01-19 07:22:00,
2013-01-19 01:28:00,41.8,38.2,30.32,SE,136,0.0,0.0,87,0.00,,,0.00,LWC V2.11 B50,2013-01-19 07:28:00,
2013-01-19 01:33:00,41.8,38.2,30.32,SE,136,0.0,0.0,87,0.00,,,0.00,LWC V2.11 B50,2013-01-19 07:33:00,
2013-01-19 01:38:00,41.6,38.0,30.31,SE,136,0.0,0.0,87,0.00,,,0.00,LWC V2.11 B50,2013-01-19 07:38:00,
2013-01-19 01:43:00,41.5,37.9,30.31,SE,136,0.0,0.0,87,0.00,,,0.00,LWC V2.11 B50,2013-01-19 07:43:00,
2013-01-19 01:48:00,41.5,38.2,30.31,SE,136,1.0,1.0,88,0.00,,,0.00,LWC V2.11 B50,2013-01-19 07:48:00,
2013-01-19 01:53:00,41.7,38.7,30.31,SE,136,0.0,1.0,89,0.00,,,0.00,LWC V2.11 B50,2013-01-19 07:53:00,
2013-01-19 01:58:00,41.7,38.4,30.31,SE,136,0.0,1.0,88,0.00,,,0.00,LWC V2.11 B50,2013-01-19 07:58:00,
2013-01-19 02:03:00,41.5,38.2,30.31,SE,136,0.0,2.0,88,0.00,,,0.00,LWC V2.11 B50,2013-01-19 08:03:00,
2013-01-19 02:08:00,41.3,38.0,30.31,SE,136,0.0,1.0,88,0.00,,,0.00,LWC V2.11 B50,2013-01-19 08:08:00,
2013-01-19 02:13:00,41.0,37.7,30.31,SE,137,0.0,2.0,88,0.00,,,0.00,LWC V2.11 B50,2013-01-19 08:13:00,
2013-01-19 02:18:00,40.7,37.4,30.31,South,184,0.0,1.0,88,0.00,,,0.00,LWC V2.11 B50,2013-01-19 08:18:00,
2013-01-19 02:23:00,40.6,37.6,30.31,South,184,0.0,0.0,89,0.00,,,0.00,LWC V2.11 B50,2013-01-19 08:23:00,
2013-01-19 02:28:00,40.5,37.5,30.31,South,184,0.0,0.0,89,0.00,,,0.00,LWC V2.11 B50,2013-01-19 08:28:00,
2013-01-19 02:33:00,40.5,37.5,30.31,South,184,0.0,2.0,89,0.00,,,0.00,LWC V2.11 B50,2013-01-19 08:33:00,
2013-01-19 02:38:00,40.5,37.8,30.31,South,184,0.0,0.0,90,0.00,,,0.00,LWC V2.11 B50,2013-01-19 08:38:00,
2013-01-19 02:43:00,40.4,37.7,30.30,South,184,0.0,1.0,90,0.00,,,0.00,LWC V2.11 B50,2013-01-19 08:43:00,
2013-01-19 02:48:00,40.4,37.7,30.30,South,184,0.0,1.0,90,0.00,,,0.00,LWC V2.11 B50,2013-01-19 08:48:00,
2013-01-19 02:53:00,40.4,37.7,30.30,South,186,1.0,2.0,90,0.00,,,0.00,LWC V2.11 B50,2013-01-19 08:53:00,
2013-01-19 02:58:00,40.3,37.6,30.30,South,189,0.0,1.0,90,0.00,,,0.00,LWC V2.11 B50,2013-01-19 08:58:00,
2013-01-19 03:03:00,40.3,37.6,30.30,SSW,198,2.0,3.0,90,0.00,,,0.00,LWC V2.11 B50,2013-01-19 09:03:00,
2013-01-19 03:08:00,40.2,37.8,30.30,SSW,213,0.0,2.0,91,0.00,,,0.00,LWC V2.11 B50,2013-01-19 09:08:00,
2013-01-19 03:13:00,40.2,37.8,30.30,SSW,213,0.0,2.0,91,0.00,,,0.00,LWC V2.11 B50,2013-01-19 09:13:00,
2013-01-19 03:18:00,40.1,37.7,30.29,SSW,213,0.0,2.0,91,0.00,,,0.00,LWC V2.11 B50,2013-01-19 09:18:00,
2013-01-19 03:23:00,40.1,37.7,30.29,SSW,213,0.0,1.0,91,0.00,,,0.00,LWC V2.11 B50,2013-01-19 09:23:00,
2013-01-19 03:28:00,40.1,37.7,30.29,SSW,213,0.0,1.0,91,0.00,,,0.00,LWC V2.11 B50,2013-01-19 09:28:00,
2013-01-19 03:33:00,40.1,38.0,30.29,SSW,213,0.0,0.0,92,0.00,,,0.00,LWC V2.11 B50,2013-01-19 09:33:00,
2013-01-19 03:38:00,40.0,37.9,30.29,SSW,213,0.0,1.0,92,0.00,,,0.00,LWC V2.11 B50,2013-01-19 09:38:00,
2013-01-19 03:43:00,40.0,37.9,30.29,SSW,213,1.0,3.0,92,0.00,,,0.00,LWC V2.11 B50,2013-01-19 09:43:00,
2013-01-19 03:48:00,40.0,37.9,30.29,SSW,213,0.0,0.0,92,0.00,,,0.00,LWC V2.11 B50,2013-01-19 09:48:00,
2013-01-19 03:53:00,39.9,37.8,30.28,SSW,213,0.0,0.0,92,0.00,,,0.00,LWC V2.11 B50,2013-01-19 09:53:00,
2013-01-19 03:59:00,39.9,37.8,30.28,SSW,213,0.0,0.0,92,0.00,,,0.00,LWC V2.11 B50,2013-01-19 09:59:00,
2013-01-19 04:04:00,40.0,38.1,30.28,SSW,213,0.0,0.0,93,0.00,,,0.00,LWC V2.11 B50,2013-01-19 10:04:00,
2013-01-19 04:09:00,40.1,38.2,30.28,SSW,213,0.0,0.0,93,0.00,,,0.00,LWC V2.11 B50,2013-01-19 10:09:00,
2013-01-19 04:14:00,40.2,38.3,30.28,SSW,213,0.0,0.0,93,0.00,,,0.00,LWC V2.11 B50,2013-01-19 10:14:00,
2013-01-19 04:19:00,40.3,38.4,30.28,SSW,213,0.0,1.0,93,0.00,,,0.00,LWC V2.11 B50,2013-01-19 10:19:00,
2013-01-19 04:24:00,40.3,38.4,30.28,SSW,213,0.0,1.0,93,0.00,,,0.00,LWC V2.11 B50,2013-01-19 10:24:00,
2013-01-19 04:29:00,40.4,38.8,30.28,SSW,213,0.0,0.0,94,0.00,,,0.00,LWC V2.11 B50,2013-01-19 10:29:00,
2013-01-19 04:34:00,40.4,38.5,30.28,SSW,213,0.0,0.0,93,0.00,,,0.00,LWC V2.11 B50,2013-01-19 10:34:00,
2013-01-19 04:39:00,40.3,38.4,30.27,SSW,213,0.0,0.0,93,0.00,,,0.00,LWC V2.11 B50,2013-01-19 10:39:00,
2013-01-19 04:44:00,40.1,38.2,30.27,SSW,213,0.0,0.0,93,0.00,,,0.00,LWC V2.11 B50,2013-01-19 10:44:00,
2013-01-19 04:49:00,40.0,38.1,30.27,SSW,213,0.0,0.0,93,0.00,,,0.00,LWC V2.11 B50,2013-01-19 10:49:00,
2013-01-19 04:54:00,40.0,38.1,30.27,SSW,213,0.0,0.0,93,0.00,,,0.00,LWC V2.11 B50,2013-01-19 10:54:00,
2013-01-19 04:59:00,39.8,37.9,30.26,SSW,213,0.0,0.0,93,0.00,,,0.00,LWC V2.11 B50,2013-01-19 10:59:00,
2013-01-19 05:04:00,39.7,38.1,30.26,SSW,213,0.0,0.0,94,0.00,,,0.00,LWC V2.11 B50,2013-01-19 11:04:00,
2013-01-19 05:09:00,39.7,38.1,30.26,SSW,213,0.0,0.0,94,0.00,,,0.00,LWC V2.11 B50,2013-01-19 11:09:00,
2013-01-19 05:10:00,53.4,52.8,29.91,North,0,6.0,10.0,98,0.04,,,0.00,LWC V2.11 B50,2013-01-19 11:10:00,
2013-01-19 05:15:00,39.7,38.1,30.26,SSW,213,0.0,0.0,94,0.00,,,0.00,LWC V2.11 B50,2013-01-19 11:15:00,
2013-01-19 05:20:00,53.2,52.6,29.91,NNW,338,6.0,12.0,98,0.04,,,0.00,LWC V2.11 B50,2013-01-19 11:20:00,
2013-01-19 05:30:00,52.9,52.4,29.91,North,0,6.0,15.0,98,0.00,,,0.00,LWC V2.11 B50,2013-01-19 11:30:00,
2013-01-19 05:40:00,52.7,52.1,29.91,NNW,338,6.0,12.0,98,0.11,,,0.00,LWC V2.11 B50,2013-01-19 11:40:00,
2013-01-19 05:50:00,52.6,52.1,29.92,NNW,338,6.0,10.0,98,0.04,,,0.00,LWC V2.11 B50,2013-01-19 11:50:00,
2013-01-19 06:00:00,52.6,52.1,29.92,NNW,338,7.0,12.0,98,0.00,,,0.00,LWC V2.11 B50,2013-01-19 12:00:00,
2013-01-19 06:10:00,52.6,52.1,29.92,NNW,338,6.0,9.0,98,0.55,,,0.00,LWC V2.11 B50,2013-01-19 12:10:00,
2013-01-19 06:20:00,52.5,51.9,29.92,NNW,338,6.0,11.0,98,0.10,,,0.00,LWC V2.11 B50,2013-01-19 12:20:00,
2013-01-19 06:30:00,52.8,52.2,29.91,NNW,338,8.0,16.0,98,0.15,,,0.00,LWC V2.11 B50,2013-01-19 12:30:00,
2013-01-19 06:49:00,38.7,37.4,30.26,SW,227,0.0,0.0,95,0.00,,,0.00,LWC V2.11 B50,2013-01-19 12:49:00,
2013-01-19 06:50:00,38.8,37.5,30.26,SW,227,0.0,0.0,95,0.00,,,0.00,LWC V2.11 B50,2013-01-19 12:50:00,
2013-01-19 06:55:00,39.1,38.1,30.26,SW,227,0.0,0.0,96,0.00,,,0.00,LWC V2.11 B50,2013-01-19 12:55:00,
2013-01-19 07:00:00,39.3,38.3,30.26,SW,227,0.0,0.0,96,0.00,,,0.00,LWC V2.11 B50,2013-01-19 13:00:00,
2013-01-19 07:05:00,39.6,38.6,30.26,SW,227,0.0,0.0,96,0.00,,,0.00,LWC V2.11 B50,2013-01-19 13:05:00,
2013-01-19 07:10:00,40.2,39.4,30.27,SW,227,0.0,0.0,97,0.00,,,0.00,LWC V2.11 B50,2013-01-19 13:10:00,
2013-01-19 07:15:00,40.5,39.7,30.27,SW,227,1.0,2.0,97,0.00,,,0.00,LWC V2.11 B50,2013-01-19 13:15:00,
2013-01-19 07:20:00,39.8,38.5,30.27,WSW,255,0.0,4.0,95,0.00,,,0.00,LWC V2.11 B50,2013-01-19 13:20:00,
2013-01-19 07:25:00,39.1,37.8,30.27,West,259,0.0,1.0,95,0.00,,,0.00,LWC V2.11 B50,2013-01-19 13:25:00,
2013-01-19 07:30:00,38.8,37.5,30.27,West,259,0.0,0.0,95,0.00,,,0.00,LWC V2.11 B50,2013-01-19 13:30:00,
2013-01-19 07:35:00,38.8,37.8,30.27,West,259,0.0,0.0,96,0.00,,,0.00,LWC V2.11 B50,2013-01-19 13:35:00,
2013-01-19 07:40:00,38.9,37.9,30.28,West,259,0.0,1.0,96,0.00,,,0.00,LWC V2.11 B50,2013-01-19 13:40:00,
2013-01-19 07:46:00,39.3,38.3,30.28,West,259,0.0,2.0,96,0.00,,,0.00,LWC V2.11 B50,2013-01-19 13:46:00,
2013-01-19 07:51:00,39.7,38.7,30.28,West,259,1.0,2.0,96,0.00,,,0.00,LWC V2.11 B50,2013-01-19 13:51:00,
2013-01-19 07:56:00,40.2,39.4,30.28,West,265,2.0,2.0,97,0.00,,,0.00,LWC V2.11 B50,2013-01-19 13:56:00,
2013-01-19 08:01:00,40.2,39.2,30.29,West,273,0.0,2.0,96,0.00,,,0.00,LWC V2.11 B50,2013-01-19 14:01:00,
2013-01-19 08:06:00,40.2,39.2,30.29,West,274,2.0,4.0,96,0.00,,,0.00,LWC V2.11 B50,2013-01-19 14:06:00,
2013-01-19 08:11:00,40.6,39.8,30.29,West,278,1.0,2.0,97,0.00,,,0.00,LWC V2.11 B50,2013-01-19 14:11:00,
2013-01-19 08:16:00,41.0,40.2,30.29,West,279,0.0,1.0,97,0.00,,,0.00,LWC V2.11 B50,2013-01-19 14:16:00,
2013-01-19 08:21:00,41.5,40.7,30.29,West,279,1.0,5.0,97,0.00,,,0.00,LWC V2.11 B50,2013-01-19 14:21:00,
2013-01-19 08:26:00,42.1,41.3,30.29,West,279,2.0,2.0,97,0.00,,,0.00,LWC V2.11 B50,2013-01-19 14:26:00,
2013-01-19 08:31:00,42.5,41.7,30.29,West,280,1.0,4.0,97,0.00,,,0.00,LWC V2.11 B50,2013-01-19 14:31:00,
2013-01-19 08:37:00,43.2,42.4,30.30,WNW,285,0.0,2.0,97,0.00,,,0.00,LWC V2.11 B50,2013-01-19 14:37:00,
2013-01-19 08:42:00,43.9,43.1,30.29,WNW,285,0.0,1.0,97,0.00,,,0.00,LWC V2.11 B50,2013-01-19 14:42:00,
2013-01-19 08:47:00,44.6,44.1,30.29,WNW,285,0.0,1.0,98,0.00,,,0.00,LWC V2.11 B50,2013-01-19 14:47:00,
2013-01-19 08:52:00,45.2,44.7,30.30,WNW,285,1.0,1.0,98,0.00,,,0.00,LWC V2.11 B50,2013-01-19 14:52:00,
2013-01-19 08:57:00,45.9,45.4,30.30,WNW,285,0.0,1.0,98,0.00,,,0.00,LWC V2.11 B50,2013-01-19 14:57:00,
2013-01-19 09:02:00,46.5,46.0,30.30,WNW,284,0.0,1.0,98,0.00,,,0.00,LWC V2.11 B50,2013-01-19 15:02:00,
2013-01-19 09:07:00,47.2,46.4,30.30,SSW,200,0.0,3.0,97,0.00,,,0.00,LWC V2.11 B50,2013-01-19 15:07:00,
2013-01-19 09:12:00,47.8,47.0,30.30,South,177,4.0,7.0,97,0.00,,,0.00,LWC V2.11 B50,2013-01-19 15:12:00,
2013-01-19 09:17:00,48.3,46.7,30.30,SE,141,1.0,7.0,94,0.00,,,0.00,LWC V2.11 B50,2013-01-19 15:17:00,
2013-01-19 09:22:00,48.7,46.8,30.30,SSW,198,2.0,3.0,93,0.00,,,0.00,LWC V2.11 B50,2013-01-19 15:22:00,
2013-01-19 09:27:00,49.1,46.6,30.30,South,189,2.0,3.0,91,0.00,,,0.00,LWC V2.11 B50,2013-01-19 15:27:00,
2013-01-19 09:32:00,49.4,46.3,30.31,SSE,148,1.0,5.0,89,0.00,,,0.00,LWC V2.11 B50,2013-01-19 15:32:00,
2013-01-19 09:37:00,49.7,46.3,30.31,SSE,150,1.0,2.0,88,0.00,,,0.00,LWC V2.11 B50,2013-01-19 15:37:00,
2013-01-19 09:42:00,50.0,46.3,30.31,SSW,204,0.0,1.0,87,0.00,,,0.00,LWC V2.11 B50,2013-01-19 15:42:00,
2013-01-19 09:47:00,50.4,46.7,30.31,South,180,2.0,5.0,87,0.00,,,0.00,LWC V2.11 B50,2013-01-19 15:47:00,
2013-01-19 09:52:00,50.7,47.0,30.31,South,180,0.0,1.0,87,0.00,,,0.00,LWC V2.11 B50,2013-01-19 15:52:00,
2013-01-19 09:57:00,51.1,46.7,30.32,SSW,193,0.0,2.0,85,0.00,,,0.00,LWC V2.11 B50,2013-01-19 15:57:00,
2013-01-19 10:02:00,51.5,47.1,30.32,SSW,192,0.0,3.0,85,0.00,,,0.00,LWC V2.11 B50,2013-01-19 16:02:00,
2013-01-19 10:07:00,52.0,47.3,30.32,SSE,165,1.0,5.0,84,0.00,,,0.00,LWC V2.11 B50,2013-01-19 16:07:00,
2013-01-19 10:12:00,52.4,47.7,30.32,SW,219,3.0,5.0,84,0.00,,,0.00,LWC V2.11 B50,2013-01-19 16:12:00,
2013-01-19 10:18:00,52.9,47.9,30.32,SSW,193,1.0,2.0,83,0.00,,,0.00,LWC V2.11 B50,2013-01-19 16:18:00,
2013-01-19 10:23:00,53.5,48.1,30.32,South,180,1.0,2.0,82,0.00,,,0.00,LWC V2.11 B50,2013-01-19 16:23:00,
2013-01-19 10:28:00,53.9,48.2,30.32,SSW,193,1.0,5.0,81,0.00,,,0.00,LWC V2.11 B50,2013-01-19 16:28:00,
2013-01-19 10:33:00,54.2,48.5,30.32,SSW,196,1.0,2.0,81,0.00,,,0.00,LWC V2.11 B50,2013-01-19 16:33:00,
2013-01-19 10:38:00,54.7,48.7,30.31,South,190,3.0,6.0,80,0.00,,,0.00,LWC V2.11 B50,2013-01-19 16:38:00,
2013-01-19 10:43:00,55.3,48.9,30.31,South,175,0.0,4.0,79,0.00,,,0.00,LWC V2.11 B50,2013-01-19 16:43:00,
2013-01-19 10:48:00,56.0,49.2,30.31,SSE,153,1.0,4.0,78,0.00,,,0.00,LWC V2.11 B50,2013-01-19 16:48:00,
2013-01-19 10:53:00,56.5,49.4,30.31,SE,140,2.0,2.0,77,0.00,,,0.00,LWC V2.11 B50,2013-01-19 16:53:00,
2013-01-19 10:58:00,57.2,49.3,30.31,South,191,5.0,7.0,75,0.00,,,0.00,LWC V2.11 B50,2013-01-19 16:58:00,
2013-01-19 11:03:00,57.7,49.5,30.31,South,175,2.0,4.0,74,0.00,,,0.00,LWC V2.11 B50,2013-01-19 17:03:00,
2013-01-19 11:08:00,58.4,49.4,30.30,SW,218,1.0,4.0,72,0.00,,,0.00,LWC V2.11 B50,2013-01-19 17:08:00,
2013-01-19 11:13:00,59.1,49.3,30.30,South,181,3.0,7.0,70,0.00,,,0.00,LWC V2.11 B50,2013-01-19 17:13:00,
2013-01-19 11:18:00,59.5,49.3,30.30,SSW,196,1.0,4.0,69,0.00,,,0.00,LWC V2.11 B50,2013-01-19 17:18:00,
2013-01-19 11:24:00,59.9,48.9,30.29,SSE,162,6.0,6.0,67,0.00,,,0.00,LWC V2.11 B50,2013-01-19 17:24:00,
2013-01-19 11:29:00,60.2,48.8,30.29,South,179,4.0,8.0,66,0.00,,,0.00,LWC V2.11 B50,2013-01-19 17:29:00,
2013-01-19 11:34:00,60.4,48.6,30.29,South,174,2.0,8.0,65,0.00,,,0.00,LWC V2.11 B50,2013-01-19 17:34:00,
2013-01-19 11:39:00,60.8,49.0,30.28,South,190,3.0,8.0,65,0.00,,,0.00,LWC V2.11 B50,2013-01-19 17:39:00,
2013-01-19 11:44:00,61.4,49.1,30.28,South,190,0.0,5.0,64,0.00,,,0.00,LWC V2.11 B50,2013-01-19 17:44:00,
2013-01-19 11:49:00,61.7,48.5,30.28,SE,138,2.0,8.0,62,0.00,,,0.00,LWC V2.11 B50,2013-01-19 17:49:00,
2013-01-19 11:54:00,62.0,48.8,30.27,SSW,198,3.0,5.0,62,0.00,,,0.00,LWC V2.11 B50,2013-01-19 17:54:00,
2013-01-19 11:59:00,62.2,48.6,30.26,SSW,198,5.0,5.0,61,0.00,,,0.00,LWC V2.11 B50,2013-01-19 17:59:00,
2013-01-19 12:04:00,62.2,49.0,30.26,South,180,6.0,6.0,62,0.00,,,0.00,LWC V2.11 B50,2013-01-19 18:04:00,
2013-01-19 12:09:00,62.8,47.8,30.25,SSW,211,1.0,10.0,58,0.00,,,0.00,LWC V2.11 B50,2013-01-19 18:09:00,
2013-01-19 12:14:00,62.9,47.4,30.25,South,186,5.0,10.0,57,0.00,,,0.00,LWC V2.11 B50,2013-01-19 18:14:00,
2013-01-19 12:20:00,62.9,47.9,30.25,South,177,2.0,7.0,58,0.00,,,0.00,LWC V2.11 B50,2013-01-19 18:20:00,
2013-01-19 12:25:00,63.5,47.5,30.25,SW,219,2.0,6.0,56,0.00,,,0.00,LWC V2.11 B50,2013-01-19 18:25:00,
2013-01-19 12:30:00,63.7,47.7,30.24,South,188,4.0,9.0,56,0.00,,,0.00,LWC V2.11 B50,2013-01-19 18:30:00,
2013-01-19 12:35:00,63.8,48.3,30.24,South,178,6.0,8.0,57,0.00,,,0.00,LWC V2.11 B50,2013-01-19 18:35:00,
2013-01-19 12:40:00,64.2,48.2,30.24,West,269,2.0,9.0,56,0.00,,,0.00,LWC V2.11 B50,2013-01-19 18:40:00,
2013-01-19 12:45:00,64.4,48.4,30.24,WSW,254,3.0,7.0,56,0.00,,,0.00,LWC V2.11 B50,2013-01-19 18:45:00,
2013-01-19 12:51:00,65.0,47.9,30.23,SSE,167,1.0,7.0,54,0.00,,,0.00,LWC V2.11 B50,2013-01-19 18:51:00,
2013-01-19 12:56:00,65.5,48.9,30.23,South,187,3.0,8.0,55,0.00,,,0.00,LWC V2.11 B50,2013-01-19 18:56:00,
2013-01-19 13:01:00,65.2,48.1,30.22,South,187,2.0,6.0,54,0.00,,,0.00,LWC V2.11 B50,2013-01-19 19:01:00,
2013-01-19 13:06:00,64.9,48.3,30.22,SSW,192,5.0,6.0,55,0.00,,,0.00,LWC V2.11 B50,2013-01-19 19:06:00,
2013-01-19 13:11:00,64.7,48.2,30.22,SSW,207,4.0,8.0,55,0.00,,,0.00,LWC V2.11 B50,2013-01-19 19:11:00,
2013-01-19 13:17:00,64.6,48.5,30.21,SSW,195,1.0,2.0,56,0.00,,,0.00,LWC V2.11 B50,2013-01-19 19:17:00,
2013-01-19 13:22:00,64.8,47.8,30.20,South,187,2.0,2.0,54,0.00,,,0.00,LWC V2.11 B50,2013-01-19 19:22:00,
2013-01-19 13:27:00,65.3,48.2,30.20,SW,219,3.0,4.0,54,0.00,,,0.00,LWC V2.11 B50,2013-01-19 19:27:00,
2013-01-19 13:32:00,66.0,47.9,30.20,South,174,0.0,3.0,52,0.00,,,0.00,LWC V2.11 B50,2013-01-19 19:32:00,
2013-01-19 13:37:00,66.2,47.0,30.20,SSW,198,0.0,5.0,50,0.00,,,0.00,LWC V2.11 B50,2013-01-19 19:37:00,
2013-01-19 13:43:00,65.9,46.7,30.20,South,174,2.0,5.0,50,0.00,,,0.00,LWC V2.11 B50,2013-01-19 19:43:00,
2013-01-19 13:48:00,66.1,47.4,30.19,SW,219,1.0,6.0,51,0.00,,,0.00,LWC V2.11 B50,2013-01-19 19:48:00,
2013-01-19 13:53:00,67.0,48.3,30.19,SSW,211,1.0,2.0,51,0.00,,,0.00,LWC V2.11 B50,2013-01-19 19:53:00,
2013-01-19 13:58:00,67.4,48.1,30.19,South,190,2.0,3.0,50,0.00,,,0.00,LWC V2.11 B50,2013-01-19 19:58:00,
2013-01-19 14:04:00,67.6,47.8,30.19,SSE,157,5.0,5.0,49,0.00,,,0.00,LWC V2.11 B50,2013-01-19 20:04:00,
2013-01-19 14:09:00,67.7,47.8,30.18,South,171,4.0,6.0,49,0.00,,,0.00,LWC V2.11 B50,2013-01-19 20:09:00,
2013-01-19 14:14:00,67.4,46.5,30.18,South,173,0.0,8.0,47,0.00,,,0.00,LWC V2.11 B50,2013-01-19 20:14:00,
2013-01-19 14:19:00,67.3,46.9,30.18,South,185,1.0,4.0,48,0.00,,,0.00,LWC V2.11 B50,2013-01-19 20:19:00,
2013-01-19 14:24:00,67.4,46.5,30.18,SSW,204,2.0,3.0,47,0.00,,,0.00,LWC V2.11 B50,2013-01-19 20:24:00,
2013-01-19 14:29:00,67.4,46.5,30.17,SSW,194,2.0,4.0,47,0.00,,,0.00,LWC V2.11 B50,2013-01-19 20:29:00,
2013-01-19 14:34:00,67.7,46.2,30.18,SSW,196,3.0,9.0,46,0.00,,,0.00,LWC V2.11 B50,2013-01-19 20:34:00,
2013-01-19 14:39:00,67.4,45.9,30.17,South,180,3.0,6.0,46,0.00,,,0.00,LWC V2.11 B50,2013-01-19 20:39:00,
2013-01-19 14:45:00,67.7,46.7,30.17,South,189,0.0,3.0,47,0.00,,,0.00,LWC V2.11 B50,2013-01-19 20:45:00,
2013-01-19 14:50:00,67.7,45.6,30.17,SSW,198,2.0,6.0,45,0.00,,,0.00,LWC V2.11 B50,2013-01-19 20:50:00,
2013-01-19 14:55:00,67.5,46.6,30.17,South,186,3.0,3.0,47,0.00,,,0.00,LWC V2.11 B50,2013-01-19 20:55:00,
2013-01-19 15:00:00,67.5,45.4,30.17,SSE,163,2.0,7.0,45,0.00,,,0.00,LWC V2.11 B50,2013-01-19 21:00:00,
2013-01-19 15:05:00,67.5,46.0,30.17,South,186,0.0,4.0,46,0.00,,,0.00,LWC V2.11 B50,2013-01-19 21:05:00,
2013-01-19 15:10:00,67.7,45.6,30.17,South,188,1.0,4.0,45,0.00,,,0.00,LWC V2.11 B50,2013-01-19 21:10:00,
2013-01-19 15:15:00,67.6,45.5,30.16,South,190,3.0,5.0,45,0.00,,,0.00,LWC V2.11 B50,2013-01-19 21:15:00,
2013-01-19 15:20:00,67.5,46.0,30.16,WSW,238,1.0,3.0,46,0.00,,,0.00,LWC V2.11 B50,2013-01-19 21:20:00,
2013-01-19 15:25:00,67.7,46.2,30.16,SSW,197,0.0,2.0,46,0.00,,,0.00,LWC V2.11 B50,2013-01-19 21:25:00,
2013-01-19 15:30:00,67.6,46.1,30.16,SSW,192,2.0,6.0,46,0.00,,,0.00,LWC V2.11 B50,2013-01-19 21:30:00,
2013-01-19 15:35:00,67.2,45.1,30.16,South,177,5.0,6.0,45,0.00,,,0.00,LWC V2.11 B50,2013-01-19 21:35:00,
2013-01-19 15:40:00,66.8,44.8,30.16,South,175,2.0,7.0,45,0.00,,,0.00,LWC V2.11 B50,2013-01-19 21:40:00,
2013-01-19 15:45:00,66.8,45.9,30.16,South,184,1.0,9.0,47,0.00,,,0.00,LWC V2.11 B50,2013-01-19 21:45:00,
2013-01-19 15:50:00,66.9,44.9,30.16,SSW,208,3.0,4.0,45,0.00,,,0.00,LWC V2.11 B50,2013-01-19 21:50:00,
2013-01-19 15:55:00,66.8,45.3,30.16,South,189,2.0,4.0,46,0.00,,,0.00,LWC V2.11 B50,2013-01-19 21:55:00,
2013-01-19 16:00:00,66.7,45.3,30.16,SSW,211,3.0,8.0,46,0.00,,,0.00,LWC V2.11 B50,2013-01-19 22:00:00,
2013-01-19 16:05:00,66.5,45.6,30.16,South,191,2.0,8.0,47,0.00,,,0.00,LWC V2.11 B50,2013-01-19 22:05:00,
2013-01-19 16:10:00,66.4,45.5,30.17,SSW,206,0.0,3.0,47,0.00,,,0.00,LWC V2.11 B50,2013-01-19 22:10:00,
2013-01-19 16:16:00,66.4,45.5,30.16,WNW,289,1.0,6.0,47,0.00,,,0.00,LWC V2.11 B50,2013-01-19 22:16:00,
2013-01-19 16:21:00,66.4,46.1,30.16,South,184,4.0,6.0,48,0.00,,,0.00,LWC V2.11 B50,2013-01-19 22:21:00,
2013-01-19 16:26:00,66.4,45.5,30.16,SSW,193,1.0,4.0,47,0.00,,,0.00,LWC V2.11 B50,2013-01-19 22:26:00,
2013-01-19 16:31:00,66.4,45.5,30.16,SSW,209,2.0,4.0,47,0.00,,,0.00,LWC V2.11 B50,2013-01-19 22:31:00,
2013-01-19 16:36:00,66.5,45.6,30.16,SSW,205,1.0,3.0,47,0.00,,,0.00,LWC V2.11 B50,2013-01-19 22:36:00,
2013-01-19 16:41:00,66.5,45.1,30.15,SSW,208,0.0,3.0,46,0.00,,,0.00,LWC V2.11 B50,2013-01-19 22:41:00,
2013-01-19 16:46:00,66.4,45.5,30.16,SSW,193,1.0,4.0,47,0.00,,,0.00,LWC V2.11 B50,2013-01-19 22:46:00,
2013-01-19 16:51:00,66.3,44.9,30.16,SSW,194,0.0,2.0,46,0.00,,,0.00,LWC V2.11 B50,2013-01-19 22:51:00,
2013-01-19 16:57:00,66.2,45.4,30.15,South,186,2.0,3.0,47,0.00,,,0.00,LWC V2.11 B50,2013-01-19 22:57:00,
2013-01-19 17:02:00,66.1,45.3,30.16,South,190,0.0,0.0,47,0.00,,,0.00,LWC V2.11 B50,2013-01-19 23:02:00,
2013-01-19 17:07:00,66.0,45.7,30.16,South,191,0.0,0.0,48,0.00,,,0.00,LWC V2.11 B50,2013-01-19 23:07:00,
2013-01-19 17:13:00,65.6,44.8,30.16,South,191,0.0,0.0,47,0.00,,,0.00,LWC V2.11 B50,2013-01-19 23:13:00,
2013-01-19 17:18:00,65.3,45.1,30.16,South,191,0.0,0.0,48,0.00,,,0.00,LWC V2.11 B50,2013-01-19 23:18:00,
2013-01-19 17:23:00,65.2,45.0,30.16,South,191,0.0,2.0,48,0.00,,,0.00,LWC V2.11 B50,2013-01-19 23:23:00,
2013-01-19 17:28:00,65.0,44.8,30.16,South,191,0.0,0.0,48,0.00,,,0.00,LWC V2.11 B50,2013-01-19 23:28:00,
2013-01-19 17:33:00,64.8,45.2,30.16,South,191,0.0,1.0,49,0.00,,,0.00,LWC V2.11 B50,2013-01-19 23:33:00,
2013-01-19 17:38:00,64.4,44.8,30.16,South,191,0.0,0.0,49,0.00,,,0.00,LWC V2.11 B50,2013-01-19 23:38:00,
2013-01-19 17:43:00,64.0,45.5,30.16,South,191,0.0,0.0,51,0.00,,,0.00,LWC V2.11 B50,2013-01-19 23:43:00,
2013-01-19 17:49:00,63.6,45.1,30.16,South,191,0.0,0.0,51,0.00,,,0.00,LWC V2.11 B50,2013-01-19 23:49:00,
2013-01-19 17:54:00,63.1,45.2,30.16,South,191,0.0,0.0,52,0.00,,,0.00,LWC V2.11 B50,2013-01-19 23:54:00,
2013-01-19 17:59:00,62.5,44.6,30.16,South,191,0.0,0.0,52,0.00,,,0.00,LWC V2.11 B50,2013-01-19 23:59:00,
2013-01-19 18:04:00,62.0,44.7,30.16,South,191,0.0,0.0,53,0.00,,,0.00,LWC V2.11 B50,2013-01-20 00:04:00,
2013-01-19 18:09:00,61.5,44.7,30.16,South,191,0.0,0.0,54,0.00,,,0.00,LWC V2.11 B50,2013-01-20 00:09:00,
2013-01-19 18:14:00,61.0,44.2,30.16,South,191,0.0,0.0,54,0.00,,,0.00,LWC V2.11 B50,2013-01-20 00:14:00,
2013-01-19 18:19:00,60.2,44.9,30.16,South,191,0.0,0.0,57,0.00,,,0.00,LWC V2.11 B50,2013-01-20 00:19:00,
2013-01-19 18:24:00,59.5,44.3,30.16,South,191,0.0,0.0,57,0.00,,,0.00,LWC V2.11 B50,2013-01-20 00:24:00,
2013-01-19 18:29:00,59.0,44.2,30.16,South,191,0.0,0.0,58,0.00,,,0.00,LWC V2.11 B50,2013-01-20 00:29:00,
2013-01-19 18:34:00,58.4,44.1,30.16,South,191,0.0,0.0,59,0.00,,,0.00,LWC V2.11 B50,2013-01-20 00:34:00,
2013-01-19 18:39:00,57.9,44.1,30.16,South,191,0.0,0.0,60,0.00,,,0.00,LWC V2.11 B50,2013-01-20 00:39:00,
2013-01-19 18:45:00,57.4,44.1,30.17,South,191,0.0,0.0,61,0.00,,,0.00,LWC V2.11 B50,2013-01-20 00:45:00,
2013-01-19 18:50:00,56.9,44.4,30.17,South,191,0.0,0.0,63,0.00,,,0.00,LWC V2.11 B50,2013-01-20 00:50:00,
2013-01-19 18:55:00,56.5,43.6,30.17,South,191,0.0,0.0,62,0.00,,,0.00,LWC V2.11 B50,2013-01-20 00:55:00,
2013-01-19 19:00:00,56.4,43.5,30.17,South,191,0.0,0.0,62,0.00,,,0.00,LWC V2.11 B50,2013-01-20 01:00:00,
2013-01-19 19:06:00,56.4,44.0,30.18,South,191,0.0,0.0,63,0.00,,,0.00,LWC V2.11 B50,2013-01-20 01:06:00,
2013-01-19 19:11:00,56.2,43.8,30.18,South,191,0.0,0.0,63,0.00,,,0.00,LWC V2.11 B50,2013-01-20 01:11:00,
2013-01-19 19:16:00,56.1,43.7,30.19,South,191,0.0,0.0,63,0.00,,,0.00,LWC V2.11 B50,2013-01-20 01:16:00,
2013-01-19 19:21:00,56.1,43.7,30.19,South,191,0.0,0.0,63,0.00,,,0.00,LWC V2.11 B50,2013-01-20 01:21:00,
2013-01-19 19:26:00,56.0,44.0,30.19,South,191,0.0,0.0,64,0.00,,,0.00,LWC V2.11 B50,2013-01-20 01:26:00,
2013-01-19 19:31:00,55.8,44.2,30.19,South,191,0.0,0.0,65,0.00,,,0.00,LWC V2.11 B50,2013-01-20 01:31:00,
2013-01-19 19:36:00,55.4,44.2,30.19,South,191,0.0,0.0,66,0.00,,,0.00,LWC V2.11 B50,2013-01-20 01:36:00,
2013-01-19 19:41:00,55.0,43.9,30.19,South,191,0.0,0.0,66,0.00,,,0.00,LWC V2.11 B50,2013-01-20 01:41:00,
2013-01-19 19:46:00,54.4,43.7,30.19,South,191,0.0,0.0,67,0.00,,,0.00,LWC V2.11 B50,2013-01-20 01:46:00,
2013-01-19 19:51:00,53.9,43.6,30.19,South,191,0.0,0.0,68,0.00,,,0.00,LWC V2.11 B50,2013-01-20 01:51:00,
2013-01-19 19:56:00,53.5,43.6,30.19,South,191,0.0,0.0,69,0.00,,,0.00,LWC V2.11 B50,2013-01-20 01:56:00,
2013-01-19 20:02:00,53.1,43.6,30.19,South,191,0.0,0.0,70,0.00,,,0.00,LWC V2.11 B50,2013-01-20 02:02:00,
2013-01-19 20:07:00,52.8,43.7,30.20,South,191,0.0,0.0,71,0.00,,,0.00,LWC V2.11 B50,2013-01-20 02:07:00,
2013-01-19 20:12:00,52.5,43.4,30.20,South,191,0.0,0.0,71,0.00,,,0.00,LWC V2.11 B50,2013-01-20 02:12:00,
2013-01-19 20:17:00,52.2,43.4,30.20,South,191,0.0,0.0,72,0.00,,,0.00,LWC V2.11 B50,2013-01-20 02:17:00,
2013-01-19 20:22:00,51.8,43.4,30.20,South,191,0.0,0.0,73,0.00,,,0.00,LWC V2.11 B50,2013-01-20 02:22:00,
2013-01-19 20:27:00,51.6,43.2,30.20,South,191,0.0,0.0,73,0.00,,,0.00,LWC V2.11 B50,2013-01-20 02:27:00,
2013-01-19 20:32:00,51.5,43.8,30.20,South,191,0.0,0.0,75,0.00,,,0.00,LWC V2.11 B50,2013-01-20 02:32:00,
2013-01-19 20:37:00,51.4,43.4,30.20,South,191,0.0,0.0,74,0.00,,,0.00,LWC V2.11 B50,2013-01-20 02:37:00,
2013-01-19 20:42:00,51.5,43.1,30.20,South,191,0.0,0.0,73,0.00,,,0.00,LWC V2.11 B50,2013-01-20 02:42:00,
2013-01-19 20:47:00,52.0,43.6,30.20,South,191,0.0,0.0,73,0.00,,,0.00,LWC V2.11 B50,2013-01-20 02:47:00,
2013-01-19 20:52:00,52.2,43.8,30.21,South,191,0.0,0.0,73,0.00,,,0.00,LWC V2.11 B50,2013-01-20 02:52:00,
2013-01-19 20:57:00,52.1,43.4,30.21,South,191,0.0,2.0,72,0.00,,,0.00,LWC V2.11 B50,2013-01-20 02:57:00,
2013-01-19 21:02:00,51.7,43.0,30.22,South,191,1.0,1.0,72,0.00,,,0.00,LWC V2.11 B50,2013-01-20 03:02:00,
2013-01-19 21:08:00,51.1,42.4,30.22,SSW,192,0.0,0.0,72,0.00,,,0.00,LWC V2.11 B50,2013-01-20 03:08:00,
2013-01-19 21:13:00,50.5,42.5,30.22,SSW,192,0.0,0.0,74,0.00,,,0.00,LWC V2.11 B50,2013-01-20 03:13:00,
2013-01-19 21:18:00,50.1,42.5,30.22,SSW,192,0.0,0.0,75,0.00,,,0.00,LWC V2.11 B50,2013-01-20 03:18:00,
2013-01-19 21:23:00,49.9,42.3,30.22,SSW,192,0.0,0.0,75,0.00,,,0.00,LWC V2.11 B50,2013-01-20 03:23:00,
2013-01-19 21:28:00,49.8,42.5,30.22,SSW,192,0.0,1.0,76,0.00,,,0.00,LWC V2.11 B50,2013-01-20 03:28:00,
2013-01-19 21:34:00,49.9,42.6,30.22,SSW,192,0.0,2.0,76,0.00,,,0.00,LWC V2.11 B50,2013-01-20 03:34:00,
2013-01-19 21:39:00,50.1,42.5,30.22,SSW,194,0.0,3.0,75,0.00,,,0.00,LWC V2.11 B50,2013-01-20 03:39:00,
2013-01-19 21:44:00,50.1,42.5,30.22,SSW,194,0.0,1.0,75,0.00,,,0.00,LWC V2.11 B50,2013-01-20 03:44:00,
2013-01-19 21:49:00,50.0,42.4,30.22,SSW,199,0.0,1.0,75,0.00,,,0.00,LWC V2.11 B50,2013-01-20 03:49:00,
2013-01-19 21:54:00,49.9,42.3,30.22,SSW,213,2.0,3.0,75,0.00,,,0.00,LWC V2.11 B50,2013-01-20 03:54:00,
2013-01-19 21:59:00,49.8,42.5,30.22,SW,225,0.0,3.0,76,0.00,,,0.00,LWC V2.11 B50,2013-01-20 03:59:00,
2013-01-19 22:04:00,49.6,42.7,30.22,SW,225,0.0,0.0,77,0.00,,,0.00,LWC V2.11 B50,2013-01-20 04:04:00,
2013-01-19 22:09:00,49.3,42.4,30.22,SW,225,0.0,0.0,77,0.00,,,0.00,LWC V2.11 B50,2013-01-20 04:09:00,
2013-01-19 22:15:00,49.0,42.4,30.22,SW,225,0.0,0.0,78,0.00,,,0.00,LWC V2.11 B50,2013-01-20 04:15:00,
2013-01-19 22:20:00,48.6,42.4,30.22,SW,225,0.0,0.0,79,0.00,,,0.00,LWC V2.11 B50,2013-01-20 04:20:00,
2013-01-19 22:25:00,48.5,42.3,30.22,SW,225,0.0,0.0,79,0.00,,,0.00,LWC V2.11 B50,2013-01-20 04:25:00,
2013-01-19 22:30:00,48.4,42.5,30.22,SW,225,0.0,0.0,80,0.00,,,0.00,LWC V2.11 B50,2013-01-20 04:30:00,
2013-01-19 22:35:00,48.3,42.4,30.23,South,172,1.0,4.0,80,0.00,,,0.00,LWC V2.11 B50,2013-01-20 04:35:00,
2013-01-19 22:40:00,48.2,42.3,30.23,South,172,0.0,0.0,80,0.00,,,0.00,LWC V2.11 B50,2013-01-20 04:40:00,
2013-01-19 22:45:00,48.1,42.5,30.23,South,172,0.0,0.0,81,0.00,,,0.00,LWC V2.11 B50,2013-01-20 04:45:00,
2013-01-19 22:50:00,47.8,42.3,30.23,South,172,0.0,0.0,81,0.00,,,0.00,LWC V2.11 B50,2013-01-20 04:50:00,
2013-01-19 22:55:00,47.6,42.4,30.24,South,172,0.0,0.0,82,0.00,,,0.00,LWC V2.11 B50,2013-01-20 04:55:00,
2013-01-19 23:00:00,47.5,42.9,30.24,South,172,0.0,0.0,84,0.00,,,0.00,LWC V2.11 B50,2013-01-20 05:00:00,
2013-01-19 23:01:00,47.5,42.9,30.24,South,172,0.0,0.0,84,0.00,,,0.00,LWC V2.11 B50,2013-01-20 05:01:00,
2013-01-19 23:03:00,47.5,43.2,30.24,South,172,0.0,0.0,85,0.00,,,0.00,LWC V2.11 B50,2013-01-20 05:03:00,
2013-01-19 23:05:00,47.6,43.3,30.24,South,172,0.0,0.0,85,0.00,,,0.00,LWC V2.11 B50,2013-01-20 05:05:00,
2013-01-19 23:10:00,48.1,43.8,30.24,South,172,0.0,0.0,85,0.00,,,0.00,LWC V2.11 B50,2013-01-20 05:10:00,
2013-01-19 23:15:00,48.3,43.7,30.24,South,172,0.0,0.0,84,0.00,,,0.00,LWC V2.11 B50,2013-01-20 05:15:00,
2013-01-19 23:20:00,48.6,44.3,30.24,South,172,0.0,1.0,85,0.00,,,0.00,LWC V2.11 B50,2013-01-20 05:20:00,
2013-01-19 23:25:00,49.1,44.5,30.24,South,172,0.0,0.0,84,0.00,,,0.00,LWC V2.11 B50,2013-01-20 05:25:00,
2013-01-19 23:30:00,49.3,44.7,30.24,South,172,0.0,0.0,84,0.00,,,0.00,LWC V2.11 B50,2013-01-20 05:30:00,
2013-01-19 23:35:00,49.5,44.9,30.24,South,172,0.0,0.0,84,0.00,,,0.00,LWC V2.11 B50,2013-01-20 05:35:00,
2013-01-19 23:40:00,49.6,45.0,30.24,South,172,0.0,1.0,84,0.00,,,0.00,LWC V2.11 B50,2013-01-20 05:40:00,
2013-01-19 23:45:00,49.8,45.5,30.24,South,172,0.0,1.0,85,0.00,,,0.00,LWC V2.11 B50,2013-01-20 05:45:00,
2013-01-19 23:50:00,50.1,45.8,30.24,South,172,0.0,0.0,85,0.00,,,0.00,LWC V2.11 B50,2013-01-20 05:50:00,
2013-01-19 23:55:00,50.2,45.9,30.24,South,172,0.0,0.0,85,0.00,,,0.00,LWC V2.11 B50,2013-01-20 05:55:00,